Location: Val-d'Or
(48.1170°N, 77.7670°W)
Time: 09:21:25
(UTC-04:00)

ISS - Pass Details

Date: 24 May 2018
Orbit: 402 x 407 km, 51.6° (Epoch: 27 May)

Event Time Altitude Azimuth Distance (km) Brightness Sun altitude
Rises 23:02:16 0° 268° (W) 2,318 0.4 -15.4°
Reaches altitude 10° 23:04:24 10° 274° (W) 1,458 -0.6 -15.6°
Maximum altitude 23:07:34 48° 350° (N) 536 -2.8 -15.9°
Drops below altitude 10° 23:10:46 10° 67° (ENE) 1,459 -1.1 -16.1°
Sets 23:12:53 0° 73° (ENE) 2,319 -0.1 -16.3°
